Other Public Products
Issued by NWS Grand Forks, ND

Home | Current Version | Previous Version | Text Only | Print | Product List | Glossary Off
Versions: 1 2 3 4 5 6 7 8 9 10 11 12 13 14 15 16 17 18 19 20 21 22 23 24 25 26 27 28 29 30 31 32 33 34 35 36 37 38 39 40 41 42 43 44 45 46 47 48 49 50

000
FPUS83 KFGF 101110
OPUFGF
PRAIRIE TO PINES WEATHER ROUNDUP
NATIONAL WEATHER SERVICE EASTERN NORTH DAKOTA/GRAND FORKS ND
500 AM CST WED FEB 10 2016

 **SATELLITE DATA USED TO AUGMENT SKY COVER AT AUTOMATED STATIONS**
 *****  WEATHER ACROSS EASTERN NORTH DAKOTA  *****

CITY           SKY/WX    TMP DP  RH WIND       PRES   REMARKS
GRAND FORKS    CLOUDY     5  -3  69 SE7       30.12F WCI  -7
GRAND FORKS AF FLURRIES   3  -2  78 SE7       30.11F WCI  -9
GRAND CITY NWS NOT AVBL
BUXTON           N/A      4   0  83 SE6         N/A  WCI  -7
DEVILS LAKE    LGT SNOW   3   0  85 SE14      30.01F FOG     WCI -15
FARGO          CLOUDY     6  -1  73 E3        30.11F
WAHPETON ARPT  CLOUDY     9   1  72 SE6       30.11F WCI  -1
$$

 *****  WEATHER ACROSS CENTRAL AND WESTERN NORTH DAKOTA  *****

CITY           SKY/WX    TMP DP  RH WIND       PRES   REMARKS
JAMESTOWN      LGT SNOW   8   4  83 E12       29.99F FOG     WCI  -7
BISMARCK       PTCLDY    26  19  74 SE10      29.87F WCI  16
MINOT          CLOUDY    19  12  74 E13       29.85F WCI   6
MINOT AFB      CLOUDY    16  13  88 SE16      29.85F WCI   1
GARRISON         N/A     21  18  88 E10       29.83F WCI  10
WILLISTON      CLOUDY    26  22  84 SW7       29.80F WCI  18
DICKINSON      CLOUDY    27  24  89 W9        29.79F WCI  18
HETTINGER      CLOUDY    25  21  85 NW5       29.85F WCI  19
$$

 *****  OTHER OBSERVATIONS NORTHEAST NORTH DAKOTA  *****

CITY           SKY/WX    TMP DP  RH WIND       PRES   REMARKS
WALHALLA       HVY SNOW   1  -2  85 SE7       30.12R WCI -11
LANGDON        LGT SNOW   1  -2  85 SE13      30.02S WCI -16
CAVALIER       FAIR       1  -2  85 SE6       30.13S WCI -10
GRAFTON        FAIR       1  -4  78 SE7       30.15S WCI -11
CANDO          NOT AVBL
FORT TOTTEN      N/A      4   0  83 SE7       29.95S WCI  -8
ROLLA          LGT SNOW   3   0  85 SE15      29.97S WCI -15
RUGBY          LGT SNOW   9   5  85 E18       29.94F WCI -10
 ***** THE ABOVE OBSERVATIONS ARE NON NWS ARE NOT QUALITY
        CONTROLLED AND MAY MIS-REPORT RAIN FOR SNOW...
$$

 *****  OTHER OBSERVATIONS SOUTHEAST NORTH DAKOTA *****

CITY           SKY/WX    TMP DP  RH WIND       PRES   REMARKS
COOPERSTOWN    NOT AVBL
VALLEY CITY    LGT SNOW   5   1  85 E13       30.05F WCI -12
OAKES          LGT SNOW   9   7  92 E14       30.02F WCI  -8
GWINNER        CLOUDY     9   5  85 E10       30.05S WCI  -6
SHEYENNE NWR     N/A      6   1  81 E7        29.95  WCI  -6
BUFFALO          N/A      4  -1  78 E8          N/A  WCI  -9
WYNDMERE         N/A      7   3  85 E7          N/A  WCI  -5
 ***** THE ABOVE OBSERVATIONS ARE NON NWS ARE NOT QUALITY
       CONTROLLED AND MAY MIS-REPORT RAIN FOR SNOW...
$$

  *****  WEATHER ACROSS NORTHERN MINNESOTA  *****

CITY           SKY/WX    TMP DP  RH WIND       PRES   REMARKS
FLAG ISLAND    PTCLDY   -17 -20  83 CALM      30.14F
WARROAD        CLOUDY   -13 -17  84 E3        30.13F
ROSEAU         CLOUDY    -9 -17  70 E5        30.13F WCI -21
HALLOCK        CLOUDY     1  -6  71 SE6       30.14S WCI -10
THF RVR FALLS  CLOUDY     0  -6  78 E8        30.12S WCI -15
HALSTAD        NOT AVBL
FOSSTON          N/A     -6 -11  77 E3        30.09F
BAUDETTE       PTCLDY   -22 -27  77 W3        30.11F
WASKISH        CLOUDY   -17 -22  76 CALM      30.11S
CROOKSTON      CLOUDY     3  -2  78 SE9       30.13F WCI -11
$$
  *****  WEATHER ACROSS CENTRAL AND WEST MINNESOTA  *****

CITY           SKY/WX    TMP DP  RH WIND       PRES   REMARKS
BEMIDJI          N/A     -8 -11  84 CALM      30.08S FOG
PARK RAPIDS    CLOUDY    -6 -11  79 CALM      30.05F
WADENA         CLOUDY     0  -6  78 CALM      30.08R
DETROIT LAKES  CLOUDY     3   0  85 E3        30.08F
MOORHEAD       CLOUDY     5  -2  72 E3        30.11F
FERGUS FALLS   CLOUDY     5  -2  72 SE6       30.13F WCI  -6
ELBOW LAKE     CLOUDY     5  -2  74 SE3       30.10S
MORRIS MN      LGT SNOW   7   1  78 E9        30.09S WCI  -7
STAPLES        CLOUDY    -2  -8  78 CALM      30.08S
WHEATON        LGT SNOW   9   7  92 E8        30.11F WCI  -4
$$
  *****  WEATHER ELSEWHERE ACROSS MINNESOTA  *****

CITY           SKY/WX    TMP DP  RH WIND       PRES   REMARKS
DULUTH         CLOUDY    -9 -14  78 N6        30.03R WCI -22
INTRNTL FALLS  PTCLDY   -13 -17  82 N3        30.13R FOG
ELY            CLOUDY    -9 -15  77 CALM      30.04R
CLOQUET        CLOUDY    -9 -15  77 CALM      30.06R
BRAINERD       CLOUDY    -3  -8  79 N6        30.09F WCI -15
HIBBING        PTCLDY   -19 -22  86 NW8       30.06S WCI -37
ALEXANDRIA     CLOUDY     3  -5  69 E7        30.08R WCI  -9
SAINT CLOUD    CLOUDY     2  -5  72 N5        30.10F WCI  -8
MINNEAPOLIS    MOCLDY     5  -4  66 N7        30.12S WCI  -7
$$

  *****  WEATHER ACROSS SOUTH DAKOTA  *****

CITY           SKY/WX    TMP DP  RH WIND       PRES   REMARKS
SIOUX FALLS    LGT SNOW  19  15  84 E8        30.01F FOG     WCI   9
BROOKINGS      LGT SNOW  13   9  84 E12       30.00F FOG     WCI  -1
WATERTOWN      LGT SNOW  12   7  80 SE8       29.99F WCI   0
HURON          CLOUDY    22  19  89 SE14      29.96F WCI   9
SISSETON         N/A      9   5  84 SE6       30.05F WCI  -1
ABERDEEN       LGT SNOW  18  13  80 E8        30.00F WCI   8
MITCHELL       CLOUDY    25  18  74 SE13      29.97F WCI  14
PIERRE         CLOUDY    25  22  88 S7        29.88F WCI  17
MOBRIDGE       CLOUDY    22  17  81 SE10      29.85F WCI  11
RAPID CITY     CLEAR     32  23  69 NW5       29.88F
$$

  *****  SOME WEATHER IN NEARBY STATES *****

CITY           SKY/WX    TMP DP  RH WIND       PRES   REMARKS
GLASGOW MT     CLEAR     32  26  78 NW8       29.89R WCI  25
GREAT FALLS MT CLEAR     45  23  42 SW15      30.03R
CHEYENNE WY    CLOUDY    39  16  39 W16       30.15F
SCOTTSBLUFF NE CLOUDY    32  25  75 NW13      30.05F WCI  22
OMAHA NE       FLURRIES  23  17  78 SE9       30.09F WCI  13
DES MOINES IA  CLOUDY    16   6  65 NE5       30.13S WCI   9
DAVENPORT IA   CLEAR      6  -1  73 NW9       30.08F WCI  -8
CHICAGO IL     PTCLDY    10   0  63 NW16      29.97S WCI  -7
EAU CLAIRE WI  PTCLDY    -1  -8  72 NW6       30.06S WCI -13
LA CROSSE WI   CLOUDY     1  -8  66 N5        30.09R WCI  -9
$$

  *****  SOME NATIONAL WEATHER *****

CITY           SKY/WX    TMP DP  RH WIND       PRES   REMARKS
LA GUARDIA NY  CLOUDY    35  28  75 SW8       29.59S
RALEIGH NC     CLEAR     26  13  57 SW7       29.89R WCI  18
ATLANTA GA     PTCLDY    24  10  55 NW14G22   30.07R WCI  12
NEW ORLEANS LA CLEAR     45  22  40 N12       30.28R
OKLAHOMA CITY  CLEAR     25  21  85 CALM      30.26S
ALBUQUERQUE NM CLOUDY    35  21  56 N6        30.39F
SALT LAKE CITY FOG       27  25  92 N8        30.46S VSB 1/2 WCI  19
LOS ANGELES CA PTCLDY    63  33  32 CALM      30.11S
BOISE ID       FOG       26  25  96 CALM      30.42S VSB 1/4
SEATTLE WA     MOCLDY    48  39  71 SE7       30.12F
$$

*** WEATHER ACROSS MANITOBA...SASKATCHEWAN AND ONTARIO ***
                ***ONTARIO***

CITY           SKY/WX    TMP DP  RH WIND       PRES   REMARKS
GERALDTON      MOCLDY   -18 -22  83 NW8       29.99R WCI -37
THUNDER BAY    CLEAR    -17 -22  76 W7        30.11R WCI -33
SIOUX LOOKOUT  CLEAR    -29 -35  75 N2        30.12R
TORONTO        FLURRIES  27  21  80 W13       29.55R WCI  16
BIG TROUT LK   PTCLDY   -27 -35  68 NW7       30.15S WCI -46
PICKLE LAKE    CLEAR    -26 -31  75 W7        30.07  WCI -44
DRYDEN         CLEAR    -18 -24  76 N3        30.11R
KENORA         CLEAR    -17 -20  83 E6        30.11F WCI -31
$$
                *** MANITOBA***

CITY           SKY/WX    TMP DP  RH WIND       PRES   REMARKS
BRANDON        LGT SNOW   3   0  85 E14       30.03S WCI -15
DAUPHIN        LGT SNOW   5   1  85 SE9       30.08R WCI  -9
ISLAND LAKE    NOT AVBL
PILOT MOUND      N/A      1  -2  85 SE13        N/A  WCI -16
THE PAS        FLURRIES  -6 -11  77 E6        30.14R WCI -18
THOMPSON       FLURRIES -13 -18  77 CALM      30.22R
WINNIPEG       CLOUDY    -2  -9  71 SE9       30.17R WCI -18
LYNN LAKE      FLURRIES  -6 -11  77 NE6       30.15R WCI -18
CHURCHILL      CRYSTALS -29 -36  68 W12       30.27F WCI -54
GILLAM         CLEAR    -29 -35  75 W7        30.25S WCI -48
$$
                ***SASKATCHEWAN***

CITY           SKY/WX    TMP DP  RH WIND       PRES   REMARKS
ESTEVAN        CLOUDY    18  14  86 E14       29.84R WCI   4
KINDERSLEY     MOCLDY    28  25  86 N13       29.96R WCI  18
LLOYDMINSTER   PTCLDY    32  30  93 NW13      29.99S WCI  22
PRINCE ALBERT  FLURRIES  14  10  85 NE6       29.99R WCI   5
REGINA         MOCLDY    21  19  93 E5        29.85R WCI  15
YORKTON        FLURRIES   9   5  85 SE15      29.95R WCC1F1C2F2C3F3C4F4C5F5C6F6C7F7C8F8C9F9CaFaCbFbCcFcCdFdCe!


USA.gov is the U.S. government's official web portal to all federal, state and local government web resources and services.